Rockford, IL

5:06 AM CST on December 15, 2017 (GMT -0600)
Greater Rockford

Weather History for KRFD - October, 2013

Change the Weather History Date:

Sunday, October 20, 2013

  Actual Average Record
Temperature  
Mean Temperature 46 °F 50 °F  
Max Temperature 58 °F 61 °F 86 °F (1953)
Min Temperature 33 °F 40 °F 19 °F (1930)
Degree Days  
Heating Degree Days 19 15  
Month to date heating degree days 171 236  
Since 1 July heating degree days 253 367  
Cooling Degree Days 0 0  
Month to date cooling degree days 16 8  
Year to date cooling degree days 890 819  
Moisture  
Dew Point 39 °F    
Average Humidity 80    
Maximum Humidity 100    
Minimum Humidity 59    
Precipitation  
Precipitation T in 0.08 in 1.16 in (1934)
Month to date precipitation 1.80 1.72  
Year to date precipitation 35.41 30.73  
Snow  
Snow 0.00 in 0.00 in 0.30 in (1989)
Month to date snowfall 0.0 0.0  
Since 1 July snowfall 0.0 0.0  
Since 1 September snowfall 0.0 0.0  
Snow Depth 0.00 in    
Sea Level Pressure  
Sea Level Pressure 29.83 in    
Wind  
Wind Speed 6 mph (SSW)    
Max Wind Speed 17 mph    
Max Gust Speed 22 mph    
Visibility 10 miles    
Events Rain    
T = Trace of Precipitation, MM = Missing Value Source: NWS Daily Summary

Daily Weather History Graph

Daily Weather History Graph

Search for Another Location

Airport or City:

Trip Planner

Search our weather history database for the weather conditions in past years. The results will help you decide how hot, cold, wet, or windy it might be!

Date:

Astronomy

Oct. 20, 2013 Rise Set
Actual Time 7:15 AM CDT 6:06 PM CDT
Civil Twilight 6:46 AM CDT 6:34 PM CDT
Nautical Twilight 6:14 AM CDT 7:07 PM CDT
Astronomical Twilight 5:41 AM CDT 7:39 PM CDT
Moon 7:12 PM CDT (10/20) 8:54 AM CDT (10/20)
Length of Visible Light 11h 48m
Length of Day
10h 51m
Full, 97% of the Moon is Illuminated
Oct 20
Full
Oct 26
Last Quarter
Nov 3
New
Nov 9
First Quarter
Nov 17
Full

Hourly Weather History & Observations

Time (CDT) Temp. Windchill Dew Point Humidity Pressure Visibility Wind Dir Wind Speed Gust Speed Precip Events Conditions
12:54 AM 37.9 °F 35.5 °F 36.0 °F 93% 29.85 in 10.0 mi South 3.5 mph - N/A   Scattered Clouds
1:54 AM 37.0 °F 33.3 °F 35.1 °F 93% 29.85 in 9.0 mi South 4.6 mph - N/A   Partly Cloudy
2:54 AM 35.1 °F - 34.0 °F 96% 29.85 in 10.0 mi Calm Calm - N/A   Partly Cloudy
3:54 AM 35.1 °F - 33.1 °F 92% 29.86 in 10.0 mi Calm Calm - N/A   Clear
4:54 AM 34.0 °F - 32.0 °F 92% 29.86 in 10.0 mi Calm Calm - N/A   Partly Cloudy
5:54 AM 34.0 °F - 33.1 °F 96% 29.87 in 6.0 mi Calm Calm - N/A   Partly Cloudy
6:54 AM 34.0 °F - 33.1 °F 96% 29.88 in 10.0 mi Calm Calm - N/A   Mostly Cloudy
7:54 AM 35.1 °F - 33.1 °F 92% 29.89 in 8.0 mi Calm Calm - N/A   Mostly Cloudy
8:54 AM 39.0 °F - 37.0 °F 93% 29.89 in 10.0 mi Calm Calm - N/A   Overcast
9:54 AM 42.1 °F - 37.9 °F 85% 29.89 in 10.0 mi Calm Calm - N/A   Overcast
10:54 AM 45.0 °F 40.6 °F 39.0 °F 80% 29.89 in 10.0 mi SSE 8.1 mph - N/A   Mostly Cloudy
11:54 AM 48.0 °F - 39.0 °F 71% 29.87 in 10.0 mi SSE 5.8 mph - 0.00 in   Overcast
12:54 PM 50.0 °F - 37.9 °F 63% 29.82 in 10.0 mi SE 15.0 mph - N/A   Overcast
1:54 PM 54.0 °F - 39.9 °F 59% 29.79 in 10.0 mi SSE 12.7 mph - N/A   Overcast
2:54 PM 55.9 °F - 43.0 °F 62% 29.76 in 10.0 mi SSE 15.0 mph - N/A   Overcast
3:54 PM 57.0 °F - 43.0 °F 59% 29.76 in 10.0 mi South 10.4 mph - 0.00 in Rain Light Rain
4:54 PM 57.9 °F - 43.0 °F 58% 29.76 in 10.0 mi SW 8.1 mph - 0.00 in   Overcast
5:54 PM 55.9 °F - 44.1 °F 64% 29.77 in 10.0 mi SW 3.5 mph - N/A   Overcast
6:54 PM 54.0 °F - 45.0 °F 72% 29.78 in 10.0 mi Calm Calm - 0.00 in   Mostly Cloudy
7:54 PM 54.0 °F - 44.1 °F 69% 29.80 in 10.0 mi SW 5.8 mph - N/A   Mostly Cloudy
8:54 PM 55.0 °F - 44.1 °F 67% 29.80 in 10.0 mi SW 9.2 mph - 0.00 in   Overcast
9:54 PM 55.0 °F - 43.0 °F 64% 29.80 in 10.0 mi WSW 8.1 mph - N/A   Overcast
10:54 PM 55.0 °F - 43.0 °F 64% 29.80 in 10.0 mi West 11.5 mph - N/A   Mostly Cloudy
11:54 PM 52.0 °F - 42.1 °F 69% 29.82 in 10.0 mi West 9.2 mph - N/A   Mostly Cloudy